TimeCDT,TemperatureF,Dew PointF,Humidity,Sea Level PressureIn,VisibilityMPH,Wind Direction,Wind SpeedMPH,Gust SpeedMPH,PrecipitationIn,Events,Conditions,WindDirDegrees,DateUTC
12:15 AM,42.8,42.8,100,29.90,10.0,Calm,Calm,-,N/A,,Clear,0,2012-10-20 05:15:00
12:35 AM,42.8,42.8,100,29.90,10.0,Calm,Calm,-,N/A,,Clear,0,2012-10-20 05:35:00
12:55 AM,42.8,41.0,93,29.90,10.0,Calm,Calm,-,N/A,,Clear,0,2012-10-20 05:55:00
1:15 AM,42.8,41.0,93,29.91,10.0,Calm,Calm,-,N/A,,Clear,0,2012-10-20 06:15:00
1:35 AM,42.8,41.0,93,29.91,10.0,Calm,Calm,-,N/A,,Clear,0,2012-10-20 06:35:00
1:55 AM,42.8,41.0,93,29.91,10.0,Calm,Calm,-,N/A,,Clear,0,2012-10-20 06:55:00
2:15 AM,41.0,39.2,93,29.91,10.0,Calm,Calm,-,N/A,,Clear,0,2012-10-20 07:15:00
2:35 AM,41.0,39.2,93,29.91,10.0,Calm,Calm,-,N/A,,Clear,0,2012-10-20 07:35:00
2:55 AM,41.0,39.2,93,29.91,10.0,Calm,Calm,-,N/A,,Clear,0,2012-10-20 07:55:00
3:15 AM,39.2,39.2,100,29.91,10.0,Calm,Calm,-,N/A,,Clear,0,2012-10-20 08:15:00
3:35 AM,39.2,39.2,100,29.91,9.0,Calm,Calm,-,N/A,,Clear,0,2012-10-20 08:35:00
3:55 AM,39.2,39.2,100,29.91,10.0,Calm,Calm,-,N/A,,Clear,0,2012-10-20 08:55:00
4:15 AM,39.2,39.2,100,29.91,9.0,Calm,Calm,-,N/A,,Clear,0,2012-10-20 09:15:00
4:35 AM,39.2,37.4,93,29.91,10.0,Calm,Calm,-,N/A,,Clear,0,2012-10-20 09:35:00
4:55 AM,39.2,37.4,93,29.92,10.0,Calm,Calm,-,N/A,,Clear,0,2012-10-20 09:55:00
5:15 AM,39.2,37.4,93,29.93,10.0,Calm,Calm,-,N/A,,Clear,0,2012-10-20 10:15:00
5:35 AM,39.2,37.4,93,29.93,3.0,Calm,Calm,-,N/A,,Partly Cloudy,0,2012-10-20 10:35:00
5:55 AM,39.2,37.4,93,29.93,8.0,Calm,Calm,-,N/A,,Scattered Clouds,0,2012-10-20 10:55:00
6:15 AM,37.4,37.4,100,29.93,9.0,Calm,Calm,-,N/A,,Clear,0,2012-10-20 11:15:00
6:35 AM,37.4,37.4,100,29.93,10.0,Calm,Calm,-,N/A,,Scattered Clouds,0,2012-10-20 11:35:00
6:55 AM,37.4,37.4,100,29.94,10.0,Calm,Calm,-,N/A,,Partly Cloudy,0,2012-10-20 11:55:00
7:15 AM,37.4,37.4,100,29.94,0.2,Calm,Calm,-,N/A,Fog,Fog,0,2012-10-20 12:15:00
7:35 AM,37.4,37.4,100,29.95,7.0,Calm,Calm,-,N/A,,Scattered Clouds,0,2012-10-20 12:35:00
7:55 AM,37.4,37.4,100,29.96,9.0,Calm,Calm,-,N/A,,Partly Cloudy,0,2012-10-20 12:55:00
8:15 AM,39.2,37.4,93,29.97,9.0,Calm,Calm,-,N/A,,Clear,0,2012-10-20 13:15:00
8:35 AM,41.0,39.2,93,29.97,10.0,Calm,Calm,-,N/A,,Clear,0,2012-10-20 13:35:00
8:55 AM,42.8,42.8,100,29.97,10.0,Calm,Calm,-,N/A,,Clear,0,2012-10-20 13:55:00
9:15 AM,44.6,42.8,93,29.97,10.0,Calm,Calm,-,N/A,,Clear,0,2012-10-20 14:15:00
9:35 AM,46.4,44.6,93,29.97,10.0,Calm,Calm,-,N/A,,Clear,0,2012-10-20 14:35:00
9:55 AM,50.0,44.6,82,29.97,10.0,Calm,Calm,-,N/A,,Clear,0,2012-10-20 14:55:00
10:15 AM,53.6,46.4,77,29.97,6.0,Calm,Calm,-,N/A,,Haze,0,2012-10-20 15:15:00
10:35 AM,55.4,46.4,72,29.97,10.0,Calm,Calm,-,N/A,,Clear,0,2012-10-20 15:35:00
10:55 AM,57.2,44.6,63,29.96,10.0,Calm,Calm,-,N/A,,Clear,0,2012-10-20 15:55:00
11:15 AM,60.8,46.4,59,29.95,10.0,Calm,Calm,-,N/A,,Clear,0,2012-10-20 16:15:00
11:35 AM,62.6,46.4,55,29.94,10.0,East,3.5,-,N/A,,Clear,100,2012-10-20 16:35:00
11:55 AM,64.4,46.4,52,29.94,10.0,Calm,Calm,-,N/A,,Clear,0,2012-10-20 16:55:00
12:15 PM,66.2,46.4,49,29.93,10.0,SE,3.5,-,N/A,,Clear,140,2012-10-20 17:15:00
12:35 PM,66.2,46.4,49,29.92,10.0,East,3.5,-,N/A,,Clear,90,2012-10-20 17:35:00
1:15 PM,71.6,44.6,38,29.91,10.0,ESE,3.5,-,N/A,,Clear,110,2012-10-20 18:15:00
1:35 PM,71.6,42.8,35,29.89,10.0,SE,4.6,-,N/A,,Clear,140,2012-10-20 18:35:00
1:55 PM,73.4,42.8,33,29.88,10.0,South,5.8,-,N/A,,Clear,180,2012-10-20 18:55:00
2:15 PM,73.4,42.8,33,29.87,10.0,SSE,5.8,-,N/A,,Clear,160,2012-10-20 19:15:00
2:35 PM,73.4,42.8,33,29.87,10.0,SE,6.9,-,N/A,,Clear,140,2012-10-20 19:35:00
2:55 PM,73.4,42.8,33,29.86,10.0,SSE,4.6,-,N/A,,Clear,160,2012-10-20 19:55:00
3:15 PM,73.4,44.6,36,29.86,10.0,SSE,4.6,-,N/A,,Clear,160,2012-10-20 20:15:00
3:35 PM,75.2,44.6,34,29.85,10.0,SE,8.1,-,N/A,,Clear,140,2012-10-20 20:35:00
3:55 PM,75.2,44.6,34,29.85,10.0,SSE,5.8,-,N/A,,Clear,160,2012-10-20 20:55:00
4:15 PM,75.2,44.6,34,29.85,10.0,South,4.6,-,N/A,,Clear,170,2012-10-20 21:15:00
4:35 PM,75.2,44.6,34,29.84,10.0,SSE,5.8,-,N/A,,Clear,150,2012-10-20 21:35:00
4:55 PM,75.2,46.4,36,29.85,10.0,SSE,4.6,-,N/A,,Clear,160,2012-10-20 21:55:00
5:15 PM,75.2,46.4,36,29.84,10.0,South,6.9,-,N/A,,Clear,170,2012-10-20 22:15:00
5:35 PM,73.4,46.4,38,29.84,10.0,SSE,4.6,-,N/A,,Clear,150,2012-10-20 22:35:00
5:55 PM,71.6,48.2,43,29.84,10.0,Calm,Calm,-,N/A,,Clear,0,2012-10-20 22:55:00
6:15 PM,69.8,51.8,53,29.84,10.0,Calm,Calm,-,N/A,,Clear,0,2012-10-20 23:15:00
6:35 PM,64.4,51.8,64,29.84,10.0,Calm,Calm,-,N/A,,Clear,0,2012-10-20 23:35:00
6:55 PM,60.8,51.8,72,29.85,10.0,Calm,Calm,-,N/A,,Clear,0,2012-10-20 23:55:00
7:15 PM,57.2,51.8,82,29.85,9.0,Calm,Calm,-,N/A,,Clear,0,2012-10-21 00:15:00
7:35 PM,57.2,51.8,82,29.86,10.0,Calm,Calm,-,N/A,,Clear,0,2012-10-21 00:35:00
7:55 PM,55.4,51.8,88,29.87,8.0,Calm,Calm,-,N/A,,Clear,0,2012-10-21 00:55:00
8:15 PM,53.6,51.8,94,29.88,9.0,Calm,Calm,-,N/A,,Clear,0,2012-10-21 01:15:00
8:35 PM,53.6,51.8,94,29.88,10.0,Calm,Calm,-,N/A,,Clear,0,2012-10-21 01:35:00
8:55 PM,53.6,50.0,88,29.89,10.0,Calm,Calm,-,N/A,,Clear,0,2012-10-21 01:55:00
9:15 PM,51.8,50.0,94,29.89,10.0,Calm,Calm,-,N/A,,Clear,0,2012-10-21 02:15:00
9:35 PM,51.8,50.0,94,29.89,10.0,Calm,Calm,-,N/A,,Clear,0,2012-10-21 02:35:00
9:55 PM,51.8,48.2,88,29.90,10.0,Calm,Calm,-,N/A,,Clear,0,2012-10-21 02:55:00
10:15 PM,51.8,48.2,88,29.91,10.0,Calm,Calm,-,N/A,,Clear,0,2012-10-21 03:15:00
10:35 PM,50.0,48.2,94,29.91,10.0,Calm,Calm,-,N/A,,Clear,0,2012-10-21 03:35:00
10:55 PM,50.0,48.2,94,29.92,10.0,Calm,Calm,-,N/A,,Clear,0,2012-10-21 03:55:00
11:35 PM,48.2,48.2,100,29.91,10.0,Calm,Calm,-,N/A,,Clear,0,2012-10-21 04:35:00
11:55 PM,48.2,46.4,93,29.91,10.0,Calm,Calm,-,N/A,,Clear,0,2012-10-21 04:55:00